Helicity
47 48 41 34 35 32 32 24 14 -4 8 26 25 25 31 48 53 72 80 49 30 17 40 49 83 97 120 136 131 112 142 114 89 103 121 141 132 127 133 130 140 134 133 120 150
51 44 33 28 29 25 20 7 -4 -16 -12 -11 0 7 16 36 74 125 84 52 41 42 57 65 79 88 114 121 135 139 107 67 108 114 103 107 105 90 105 116 107 121 101 126 124
46 45 42 29 14 13 10 7 0 -7 -7 0 1 8 32 37 68 65 28 35 37 42 52 59 80 96 113 121 123 102 83 93 91 90 95 88 83 71 83 91 79 79 77 92 96
37 32 31 27 15 6 -3 -11 -13 -5 -2 4 12 32 37 51 66 54 35 25 19 15 27 42 68 83 86 82 100 96 92 85 66 79 76 71 78 74 64 91 81 59 63 73 95
45 48 39 27 13 1 -5 -11 -10 -2 12 42 46 30 43 53 69 16 -14 1 25 36 52 47 64 69 71 73 93 88 72 73 72 63 54 78 74 77 75 49 58 64 77 68 83
51 43 36 23 13 10 5 -8 -3 7 14 24 19 36 47 64 29 -13 -14 8 33 37 55 65 64 74 100 83 74 65 65 68 79 84 74 85 87 93 103 88 87 99 90 57 70
44 41 35 31 24 18 19 1 -9 -7 9 17 27 46 70 72 -4 -4 8 13 21 25 49 54 59 80 81 79 78 80 77 81 75 91 75 60 82 65 83 92 109 105 77 22 54
32 35 36 34 43 32 23 -23 -13 1 14 20 44 53 70 1 -1 15 7 26 32 46 54 53 73 90 90 84 97 85 95 89 82 90 64 67 80 91 90 103 93 46 45 57 66
33 30 38 43 43 26 20 -5 6 8 10 22 44 64 67 8 34 15 26 41 36 52 55 47 60 76 75 95 94 114 72 85 89 73 63 62 67 62 77 92 21 33 37 84 105
30 31 29 39 41 32 26 31 35 40 44 40 50 63 58 63 32 27 30 38 54 54 58 62 72 77 73 82 50 60 75 72 61 64 54 50 30 51 66 31 9 43 63 75 91
24 27 32 39 40 39 46 51 52 38 76 62 74 102 88 66 36 37 37 43 53 68 72 58 79 68 60 64 70 72 60 42 47 33 25 33 24 82 15 27 77 95 111 84 83
18 29 32 41 37 38 55 48 57 55 56 87 100 113 99 46 56 39 27 45 56 69 60 68 66 68 99 85 71 58 43 24 35 51 0 18 50 31 98 139 126 91 99 90 94
30 31 38 47 27 51 52 51 59 75 62 76 114 111 97 44 53 46 40 53 71 79 74 74 71 80 79 83 86 59 42 31 27 30 27 23 40 95 96 101 114 111 100 87 100
51 39 43 48 38 36 45 43 59 64 79 69 111 98 92 50 47 54 54 71 82 83 72 63 54 69 82 86 101 69 83 61 38 31 40 51 53 78 103 96 104 110 93 124 126
66 51 51 49 42 44 33 42 57 48 73 52 100 64 84 74 57 55 64 84 83 77 77 82 85 87 92 92 87 93 92 81 81 82 80 64 84 53 74 85 77 84 112 127 149
61 53 53 55 61 52 48 47 62 125 64 56 79 77 117 88 61 86 93 99 75 82 77 69 66 73 83 103 101 99 101 95 94 89 84 53 63 54 74 72 115 130 159 211 217
29 62 73 73 53 55 62 80 147 137 94 60 74 94 79 88 83 99 97 95 88 95 85 91 106 92 94 118 105 107 95 88 82 89 78 60 60 29 58 80 136 189 221 201 167
22 68 89 87 86 93 113 140 169 115 96 95 95 135 117 130 109 120 97 69 70 120 129 142 146 140 105 111 116 108 104 115 97 90 90 109 56 68 71 114 202 213 214 187 144
114 141 143 89 106 143 167 187 112 93 99 144 187 144 124 141 128 110 77 71 66 90 127 158 171 145 140 128 106 93 117 88 132 111 91 79 43 35 90 173 169 210 193 175 128
155 98 119 98 131 196 209 179 120 120 150 145 111 101 75 96 112 87 75 61 75 95 132 139 207 159 136 126 151 125 112 107 97 98 61 88 74 65 104 111 124 154 157 170 155
243 103 111 204 203 248 231 162 109 124 160 113 109 149 104 101 115 81 68 80 112 156 166 151 172 139 124 100 122 145 123 141 129 130 120 133 67 159 97 74 123 141 159 140 95
286 252 109 198 255 245 230 185 134 120 199 197 189 184 138 145 128 96 76 99 106 132 137 134 147 146 131 146 160 147 120 138 122 80 182 210 155 47 98 166 219 190 126 102 32
294 377 248 288 221 240 245 242 161 157 162 144 180 185 189 153 141 122 100 129 134 139 121 103 150 151 133 126 130 102 108 165 184 190 236 211 150 215 152 135 138 201 118 105 160
368 390 392 264 231 190 215 205 213 189 192 228 207 262 237 226 224 121 118 117 127 148 147 161 162 150 134 114 139 139 126 140 203 207 214 401 278 263 305 262 200 149 133 154 168
434 320 436 328 267 237 217 161 246 210 209 237 255 214 248 228 241 182 179 197 185 178 198 176 123 138 109 150 163 143 145 229 319 281 259 229 203 196 212 166 152 130 172 177 173
360 338 551 316 232 160 209 160 167 261 239 238 224 196 200 182 154 107 253 212 168 220 208 202 155 134 62 108 125 107 101 142 219 165 184 150 105 128 79 105 167 134 160 184 208
278 444 371 252 296 203 171 168 172 217 169 191 219 266 187 150 179 163 184 169 142 190 236 206 196 166 95 93 69 87 69 87 140 157 198 207 206 179 151 172 172 127 171 186 191
Wind_Speed
52 53 54 55 54 53 52 51 52 50 47 44 39 40 37 36 33 33 39 40 42 43 39 35 35 30 28 28 29 28 37 40 37 31 34 35 36 36 38 37 39 35 35 39 49
53 54 54 55 54 53 52 52 51 47 46 42 38 34 33 33 34 39 44 45 44 41 34 33 33 29 30 31 33 33 40 37 32 30 31 35 36 37 36 39 35 36 38 43 42
54 55 56 56 55 54 53 52 51 46 41 36 30 29 30 32 33 34 40 43 42 38 33 31 30 30 33 33 35 35 42 31 32 32 35 38 40 33 35 37 33 35 40 42 37
54 55 57 57 56 55 54 52 50 45 41 34 28 28 30 33 39 31 41 41 41 34 32 32 31 31 32 34 35 38 34 34 32 34 39 41 37 38 34 37 27 34 37 38 36
55 57 57 57 56 55 54 52 49 46 38 38 31 29 30 35 31 30 37 40 37 38 33 30 31 31 34 35 35 39 37 39 37 43 41 38 39 41 40 36 36 33 38 35 37
57 57 58 58 57 56 54 51 47 41 37 35 31 29 31 33 29 31 34 36 37 34 35 33 29 28 30 35 38 35 38 41 41 38 39 42 42 40 37 27 27 34 42 39 38
58 58 59 58 58 57 56 51 44 37 36 35 33 29 33 30 30 33 36 37 37 33 33 34 30 29 27 33 33 36 42 41 38 37 39 42 50 44 36 34 36 41 49 44 40
60 59 60 59 60 58 58 50 39 35 36 37 33 30 30 28 30 32 32 36 38 37 35 34 32 31 31 27 35 37 38 42 38 40 37 41 50 39 32 37 46 62 61 49 41
60 60 61 60 61 59 57 46 36 36 38 36 31 28 26 27 28 28 30 32 34 36 36 34 34 32 31 29 37 40 42 40 43 38 42 40 48 41 40 50 71 70 65 52 45
60 60 61 61 61 58 52 39 38 38 36 34 31 28 26 21 25 28 29 30 32 32 33 35 35 34 34 33 46 42 42 43 46 43 48 56 63 72 65 61 70 61 54 42 31
61 60 61 62 61 55 44 39 41 39 33 31 28 27 23 22 26 28 28 29 31 33 32 35 34 35 35 33 33 34 41 48 48 50 51 52 66 73 76 61 47 42 40 31 26
60 59 60 61 59 49 40 41 40 39 41 34 28 25 21 20 23 25 27 28 29 27 30 32 32 31 31 28 35 40 45 50 49 42 54 61 76 60 43 37 35 34 32 27 27
61 57 58 60 50 44 41 39 38 38 41 35 26 19 16 17 23 20 26 28 30 29 29 29 31 29 29 30 33 41 45 49 50 56 47 60 51 37 36 33 34 33 27 26 29
63 56 54 56 46 41 43 36 33 35 46 33 23 21 17 17 20 24 27 29 32 30 30 31 30 29 30 30 27 44 33 41 51 58 53 51 53 42 32 31 32 30 28 31 36
63 54 50 46 46 44 39 32 28 35 51 24 22 22 17 17 18 23 28 30 28 29 30 31 29 30 32 32 26 35 38 41 44 46 50 44 43 39 30 32 29 29 31 36 45
62 52 45 47 44 39 31 26 29 41 50 27 23 19 17 20 21 22 24 30 30 31 32 29 30 32 33 35 34 37 41 44 40 37 43 33 34 38 30 27 28 28 28 38 50
59 49 47 41 47 30 26 33 45 48 34 34 29 21 18 19 20 20 19 20 23 31 31 33 32 33 32 39 40 42 50 44 41 38 37 36 41 37 29 28 22 24 29 43 54
54 46 46 45 33 27 31 45 57 45 38 33 29 24 26 23 27 21 23 25 21 25 32 32 35 30 33 36 39 44 39 37 46 42 44 43 35 34 35 27 23 25 34 52 63
41 49 52 43 33 33 41 62 56 47 37 29 32 35 35 32 30 23 22 27 17 13 29 34 39 33 34 34 35 35 37 33 38 41 46 34 34 37 28 27 24 33 44 62 73
49 53 60 36 32 39 56 71 58 45 35 34 39 32 35 28 24 22 24 24 22 17 25 31 43 36 32 30 39 31 25 36 38 47 49 39 39 33 39 25 28 36 54 65 75
52 61 48 35 35 52 76 69 62 49 39 40 41 40 39 32 25 28 31 29 25 23 27 28 40 41 33 28 26 29 31 32 32 31 46 55 39 39 39 30 31 42 60 67 80
53 72 44 37 59 64 80 63 53 49 45 46 41 41 37 30 31 31 33 35 20 19 29 29 39 44 41 35 34 31 29 25 33 36 36 46 56 37 40 34 37 51 63 73 90
62 55 46 51 77 78 69 68 60 53 52 46 45 42 38 34 38 32 32 32 20 20 29 23 41 48 48 42 36 31 28 31 34 38 39 48 52 44 42 40 47 66 82 86 74
56 63 58 68 65 72 75 74 68 55 53 47 44 39 37 40 40 32 31 32 25 27 28 26 39 43 50 48 39 41 34 28 31 44 46 45 57 55 53 59 68 74 76 75 68
63 70 62 80 86 71 64 67 69 64 53 46 50 47 40 44 40 38 33 31 30 29 28 33 50 44 46 45 47 48 43 36 36 39 53 59 62 61 65 69 69 68 70 71 72
75 70 62 68 68 69 77 80 74 60 52 58 58 42 42 46 41 37 30 31 35 29 28 33 50 49 60 52 50 53 45 38 40 41 48 51 57 59 60 58 63 67 71 70 73
65 69 66 67 69 71 79 83 71 57 56 53 48 42 45 41 36 33 27 25 26 27 29 33 40 52 64 55 64 67 45 27 32 36 40 49 55 62 67 68 69 72 69 71 75
Wind_Direction
325 325 322 321 318 316 314 314 322 317 344 2 12 6 12 18 28 19 356 348 337 326 326 324 323 316 314 309 308 304 293 290 292 294 293 295 294 295 300 297 299 305 307 310 309
321 322 322 321 319 318 316 318 332 349 348 355 11 27 33 39 36 10 2 355 347 338 332 325 319 315 308 303 303 295 291 292 299 298 297 297 297 297 298 298 298 303 308 311 318
322 322 323 322 322 322 322 324 335 350 5 18 34 48 53 40 23 18 15 10 5 359 353 335 326 316 304 303 301 298 292 297 298 300 300 298 297 299 298 297 299 302 306 311 318
321 322 324 323 323 323 325 329 339 352 4 26 47 55 49 32 358 34 9 11 5 14 355 338 327 313 307 300 301 296 300 299 298 298 298 296 301 299 296 301 310 310 311 316 317
321 321 321 321 321 323 324 329 337 347 9 17 41 49 37 30 34 42 22 10 15 19 5 346 326 317 304 305 303 296 298 298 298 295 297 299 298 298 296 299 305 312 316 320 319
318 319 319 319 321 322 322 328 338 353 5 15 30 42 34 24 57 50 39 31 24 34 22 10 350 341 324 311 302 308 302 297 298 298 300 298 299 301 305 312 309 311 313 316 318
313 315 316 318 319 320 322 325 337 353 359 3 10 27 22 35 46 35 39 39 17 28 30 15 18 1 350 319 321 312 299 300 299 302 302 305 295 296 301 303 306 307 309 313 314
308 312 315 317 319 318 316 321 336 346 347 348 2 11 19 39 43 35 40 32 19 19 24 16 19 17 4 4 328 312 308 296 300 302 307 307 294 301 309 304 301 301 301 305 309
308 309 312 315 317 317 316 324 335 335 334 343 355 5 14 17 27 30 35 35 35 30 25 29 11 14 8 359 325 315 302 302 301 308 306 306 299 301 305 302 295 298 300 301 305
305 309 310 312 315 316 320 333 334 330 332 342 347 355 359 14 13 20 22 29 24 23 20 15 11 3 356 351 312 310 306 305 300 307 305 297 292 289 294 301 297 302 310 313 313
302 306 309 310 313 318 327 327 325 328 330 341 350 348 0 355 351 2 16 18 20 16 15 14 8 357 355 352 344 337 319 305 305 309 306 303 295 293 293 301 306 311 319 329 330
300 304 306 309 311 319 328 319 322 324 323 328 341 347 347 348 352 353 8 10 13 19 15 14 14 17 17 24 349 327 315 307 311 321 312 303 287 306 320 324 322 322 327 335 335
296 301 304 307 314 318 318 319 328 325 319 321 332 350 7 358 348 353 359 3 6 9 12 13 13 25 20 17 2 335 320 313 311 312 323 310 314 322 327 332 334 336 341 341 339
291 295 302 306 308 312 311 323 334 331 314 320 320 333 352 10 357 339 350 352 354 359 2 2 7 10 10 11 14 337 357 334 318 312 312 324 312 318 328 333 336 341 343 340 337
288 291 298 304 301 304 312 326 335 323 304 327 323 337 347 354 18 348 341 346 349 352 355 355 358 356 356 359 12 355 351 343 335 328 320 325 321 327 328 326 331 335 339 339 336
284 287 292 294 296 303 315 323 319 303 296 312 320 324 328 335 348 356 351 346 351 350 351 353 357 352 350 351 353 352 348 343 346 345 327 342 339 333 336 332 337 341 347 347 343
280 281 283 289 286 297 303 298 288 283 306 303 306 310 316 329 340 344 352 352 352 347 349 350 348 348 348 336 339 340 335 340 340 341 337 341 335 333 340 345 348 349 349 345 343
276 275 276 281 287 284 287 279 272 286 287 303 305 307 308 319 324 333 340 333 343 347 345 347 346 348 347 339 337 336 340 343 332 335 333 334 337 345 345 347 354 354 347 342 340
269 272 270 272 275 274 271 264 272 278 286 287 299 296 299 306 317 323 324 329 353 5 343 346 343 352 349 347 344 345 341 348 340 339 333 344 344 335 333 341 341 337 338 338 339
263 266 265 259 263 266 262 262 271 278 284 285 284 292 298 303 307 315 320 338 341 353 355 347 338 348 350 355 344 346 2 343 344 333 332 340 338 336 340 335 333 331 332 335 341
258 261 264 248 258 258 256 261 268 273 278 281 280 287 293 297 295 308 316 326 331 340 348 352 338 341 349 347 347 348 341 344 347 344 333 331 340 341 340 333 330 331 332 333 336
259 254 250 238 251 256 255 261 269 268 273 278 281 285 285 287 293 299 304 314 325 339 332 341 337 331 334 346 345 342 337 338 334 334 334 332 331 344 339 341 340 334 334 335 335
258 259 251 246 250 251 259 260 264 265 266 271 274 280 285 282 291 296 305 312 317 322 330 341 330 327 329 335 336 337 333 328 329 330 320 326 330 342 339 335 331 329 329 332 336
252 252 251 247 256 253 253 257 257 263 265 269 275 277 279 281 287 296 301 309 309 314 327 337 324 320 320 324 334 327 328 320 316 318 320 310 317 323 325 324 325 328 330 334 336
249 255 250 247 246 248 254 259 252 256 263 263 269 270 270 278 280 286 296 304 308 311 318 322 314 320 320 319 317 316 312 305 295 298 310 317 318 320 325 326 328 330 333 333 334
244 249 250 253 249 245 247 253 252 254 254 259 265 264 266 273 279 283 287 293 299 303 308 316 314 321 316 322 318 313 309 301 299 298 300 302 308 319 326 333 333 333 334 333 334
253 252 249 250 247 244 249 248 254 253 261 266 260 264 264 271 286 299 300 302 305 302 300 310 316 317 313 325 321 315 322 315 320 319 319 318 323 328 330 331 333 333 334 333 333